This demonstration page uses our WeatherBlox Daily Observations layout. Learn more.

Left ArrowRight Arrow

Hourly Observations for December 16, 2020

Temp ( °F °C ) Dew Point ( °F °C ) Humidity (%) Winds ( mph kmh ) Pressure ( in mb ) Visibility ( mi km ) Precip ( " mm )
12:19 am 00:19 Cloudy with Light Snow 10 -12 9 -13 92 92 SSE 7 11 30.21 1023 0 0 0.00 0.00
12:56 am 00:56 Cloudy with Light Snow 14 -10 12 -11.1 92 92 SW 5 7 30.10 1019 0 0 0.00 0.00
1:56 am 01:56 Cloudy with Light Snow 16 -8.9 14 -10 92 92 SSW 3 6 30.09 1019 0 0 0.00 0.00
2:29 am 02:29 Cloudy with Light Snow 16 -9 12 -11 86 86 SSW 7 11 30.16 1021 1 1 0.00 0.00
2:37 am 02:37 Cloudy with Light Snow 16 -9 12 -11 86 86 SW 5 7 30.17 1022 1 2 0.00 0.00
2:42 am 02:42 Cloudy with Light Snow 16 -9 12 -11 86 86 SSW 5 7 30.17 1022 2 3 0.00 0.00
2:48 am 02:48 Cloudy with Mist and Fog 16 -9 12 -11 86 86 SW 6 9 30.17 1022 6 10 0.00 0.00
2:56 am 02:56 Cloudy 15 -9.4 13 -10.6 91 91 S 6 9 30.08 1019 8 13 0.00 0.00
3:56 am 03:56 Cloudy 15 -9.4 13 -10.6 91 91 S 5 7 30.06 1018 9 14 0.00 0.00
4:31 am 04:31 Partly Cloudy with Isolated Snow Showers 12 -11 10 -12 92 92 SW 7 11 30.16 1021 9 14 0.00 0.00
4:56 am 04:56 Clear 10 -12.2 8 -13.3 92 92 SW 5 7 30.05 1018 9 14 0.00 0.00
5:10 am 05:10 Partly Cloudy 10 -12 9 -13 92 92 SW 7 11 30.16 1021 9 14 0.00 0.00
5:23 am 05:23 Mostly Cloudy with Light Snow 12 -11 10 -12 92 92 SW 8 13 30.15 1021 2 3 0.00 0.00
5:26 am 05:26 Mostly Cloudy with Light Snow 12 -11 10 -12 92 92 SW 8 13 30.14 1021 1 1 0.00 0.00
5:46 am 05:46 Cloudy with Light Snow 12 -11 10 -12 92 92 SSW 9 15 30.15 1021 1 1 0.00 0.00
5:56 am 05:56 Cloudy with Light Snow 12 -11.1 10 -12.2 92 92 SSW 9 15 30.06 1018 1 1 0.00 0.00
6:18 am 06:18 Cloudy with Light Snow 10 -12 9 -13 92 92 SSW 7 11 30.16 1021 0 0 0.00 0.00
6:56 am 06:56 Cloudy with Light Snow 9 -12.8 7 -13.9 92 92 SSW 8 13 30.06 1018 0 0 0.00 0.00
7:06 am 07:06 Cloudy with Light Snow 9 -13 7 -14 92 92 SSW 8 13 30.17 1022 1 1 0.00 0.00
7:14 am 07:14 Cloudy with Light Snow 9 -13 7 -14 92 92 S 7 11 30.17 1022 1 1 0.00 0.00
7:25 am 07:25 Cloudy with Light Snow 7 -14 5 -15 92 92 S 7 11 30.18 1022 1 2 0.00 0.00
7:38 am 07:38 Cloudy with Light Snow 7 -14 3 -16 85 85 S 7 11 30.18 1022 1 2 0.00 0.00
7:41 am 07:41 Cloudy with Light Snow 7 -14 3 -16 85 85 S 7 11 30.18 1022 1 1 0.00 0.00
7:48 am 07:48 Cloudy with Light Snow 7 -14 3 -16 85 85 S 7 11 30.18 1022 1 1 0.00 0.00
7:54 am 07:54 Cloudy with Light Snow 7 -14 3 -16 85 85 S 7 11 30.18 1022 1 2 0.00 0.00
7:56 am 07:56 Cloudy with Light Snow 6 -14.4 3 -16.1 87 87 S 7 11 30.06 1018 1 2 0.00 0.00
8:07 am 08:07 Partly Cloudy with Scattered Snow Showers 5 -15 1 -17 85 85 S 7 11 30.19 1022 3 5 0.00 0.00
8:35 am 08:35 Partly Cloudy with Isolated Snow Showers 9 -13 5 -15 85 85 SW 5 7 30.17 1022 2 2 0.00 0.00
8:38 am 08:38 Mostly Cloudy with Light Snow 9 -13 7 -14 92 92 SW 6 9 30.17 1022 1 1 0.00 0.00
8:45 am 08:45 Partly Cloudy with Isolated Snow Showers 9 -13 7 -14 92 92 SSW 7 11 30.17 1022 1 2 0.00 0.00
8:53 am 08:53 Mostly Sunny 9 -13 7 -14 92 92 SW 7 11 30.16 1021 8 13 0.00 0.00
8:56 am 08:56 Mostly Sunny 10 -12.2 7 -13.9 87 87 SW 7 11 30.06 1018 8 13 0.00 0.00
9:56 am 09:56 Sunny 14 -10 10 -12.2 84 84 WSW 9 15 30.06 1018 10 16 0.00 0.00
10:56 am 10:56 Sunny 17 -8.3 14 -10 88 88 SW 7 11 30.06 1018 10 16 0.00 0.00
11:56 am 11:56 Sunny 23 -5 19 -7.2 85 85 SW 7 11 30.04 1017 10 16 0.00 0.00
12:56 pm 12:56 Sunny 27 -2.8 20 -6.7 75 75 W 6 9 30.02 1017 10 16 0.00 0.00
1:56 pm 13:56 Sunny 29 -1.7 19 -7.2 66 66 W 7 11 30.00 1016 10 16 0.00 0.00
2:56 pm 14:56 Mostly Sunny 32 0 20 -6.7 61 61 W 3 6 30.00 1016 10 16 0.00 0.00
3:56 pm 15:56 Sunny 31 -0.6 21 -6.1 67 67 WSW 5 7 30.02 1017 10 16 0.00 0.00
4:56 pm 16:56 Sunny 26 -3.3 20 -6.7 78 78 WSW 6 9 30.05 1018 10 16 0.00 0.00
5:56 pm 17:56 Clear 23 -5 18 -7.8 81 81 SW 7 11 30.05 1018 10 16 0.00 0.00
6:56 pm 18:56 Clear 22 -5.6 18 -7.8 85 85 SW 6 9 30.06 1018 10 16 0.00 0.00
7:56 pm 19:56 Clear 22 -5.6 19 -7.2 89 89 WSW 6 9 30.06 1018 10 16 0.00 0.00
8:56 pm 20:56 Clear 27 -2.8 25 -3.9 92 92 WNW 8 13 30.06 1018 10 16 0.00 0.00
9:56 pm 21:56 Mostly Clear 26 -3.3 22 -5.6 84 84 WNW 7 11 30.07 1018 10 16 0.00 0.00
10:56 pm 22:56 Clear 24 -4.4 21 -6.1 88 88 WNW 10 17 30.08 1019 10 16 0.00 0.00
11:56 pm 23:56 Clear 26 -3.3 23 -5 88 88 WNW 10 17 30.09 1019 10 16 0.00 0.00

Powered by AerisWeather